Location: West Sayville
(40.7279°N, 73.0976°W)
Time: 05:39:04
(UTC+00:00)

Cosmos 1745 Rocket - Pass Details

Date: 29 October 2020
Orbit: 953 x 997 km, 83.0° (Epoch: 29 November)

Event Time Altitude Azimuth Distance (km) Brightness Sun altitude
Rises 23:22:47 0° 352° (N) 3,697 7.1 -17.8°
Reaches altitude 10° 23:25:17 10° 353° (N) 2,750 6.4 -18.2°
Maximum altitude 23:31:38 89° 84° (E) 998 4.0 -19.4°
Drops below altitude 10° 23:37:59 10° 174° (S) 2,753 6.3 -20.6°
Sets 23:40:29 0° 175° (S) 3,700 7.0 -21.1°
